SV2TW-2 Weather Reports


time (UTC)temp
C
wind
direction
speed
KPH
gust
KPH
rain 1hr
cm
rain 24hr
cm
rain mn
cm
humidity
%
barometer
mb
20260508115704 14 45 1.6 0.0 0.00 0.00 0.00 90 1009.9
20260508115204 14 135 0.0 0.0 0.00 0.00 0.00 90 1010.1
20260508114704 14 45 0.0 0.0 0.00 0.00 0.00 90 1010.0
20260508114204 14 180 0.0 0.0 0.00 0.00 0.00 89 1010.1
20260508113704 14 90 1.6 0.0 0.00 0.00 0.00 89 1010.3
20260508113204 15 90 1.6 0.0 0.00 0.00 0.00 89 1010.1
20260508112704 15 45 3.2 0.0 0.00 0.00 0.00 88 1010.2
20260508112204 15 68 3.2 0.0 0.00 0.00 0.00 88 1010.4
20260508111704 15 90 1.6 0.0 0.00 0.00 0.00 87 1010.4
20260508111204 15 68 1.6 0.0 0.00 0.00 0.00 88 1010.6
20260508110204 15 0 0.0 0.0 0.00 0.00 0.00 87 1010.8
20260508105704 15 315 1.6 0.0 0.00 0.00 0.00 87 1010.9
20260508105204 15 315 3.2 0.0 0.00 0.00 0.00 86 1011.0
20260508104704 15 0 3.2 0.0 0.00 0.00 0.00 85 1010.7
20260508104205 15 0 3.2 0.0 0.00 0.00 0.00 83 1010.7
20260508103704 15 90 3.2 0.0 0.00 0.00 0.00 82 1010.8
20260508103204 15 68 3.2 0.0 0.00 0.00 0.00 82 1011.0
20260508102704 15 45 1.6 0.0 0.00 0.00 0.00 81 1011.0
20260508102204 15 45 1.6 0.0 0.00 0.00 0.00 81 1011.1
20260508101704 15 0 4.8 0.0 0.00 0.00 0.00 81 1011.2
20260508101204 15 180 1.6 0.0 0.00 0.00 0.00 80 1011.3
20260508100704 15 45 3.2 0.0 0.00 0.00 0.00 78 1011.5
20260508100204 16 135 3.2 0.0 0.00 0.00 0.00 76 1011.6
20260508095204 16 180 6.4 0.0 0.00 0.00 0.00 74 1011.6
20260508094704 16 135 6.4 0.0 0.00 0.00 0.00 73 1011.4
20260508094204 16 225 3.2 0.0 0.00 0.00 0.00 72 1011.6
20260508093704 16 225 6.4 0.0 0.00 0.00 0.00 73 1011.6
20260508090204 16 45 4.8 0.0 0.00 0.00 0.00 75 1011.1
20260508085204 16 45 4.8 0.0 0.00 0.00 0.00 74 1011.0
20260508084704 16 90 1.6 0.0 0.00 0.00 0.00 73 1011.1
20260508083704 17 45 6.4 0.0 0.00 0.00 0.00 71 1011.1
20260508083204 17 45 3.2 0.0 0.00 0.00 0.00 66 1011.1
20260508082704 17 45 3.2 0.0 0.00 0.00 0.00 65 1010.8
20260508082204 17 90 3.2 0.0 0.00 0.00 0.00 64 1010.8
20260508081204 17 45 6.4 0.0 0.00 0.00 0.00 62 1010.4
20260508080704 17 45 4.8 0.0 0.00 0.00 0.00 61 1010.6
20260508080204 17 45 6.4 0.0 0.00 0.00 0.00 61 1010.3
20260508075704 18 315 4.8 0.0 0.00 0.00 0.00 60 1010.2
20260508075204 18 0 6.4 0.0 0.00 0.00 0.00 58 1010.2
20260508074704 18 45 6.4 0.0 0.00 0.00 0.00 58 1010.4
20260508073204 18 45 3.2 0.0 0.00 0.00 0.00 60 1010.7
20260508072704 18 0 3.2 0.0 0.00 0.00 0.00 62 1010.6
20260508072204 17 45 4.8 0.0 0.00 0.00 0.00 63 1010.6
20260508071204 16 90 1.6 0.0 0.00 0.00 0.00 63 1010.8
20260508070704 16 90 6.4 0.0 0.00 0.00 0.00 70 1010.8
20260508065703 16 180 4.8 0.0 0.00 0.00 0.00 70 1010.8
20260508065204 16 225 6.4 0.0 0.00 0.00 0.00 69 1011.0
20260508064204 16 90 3.2 0.0 0.00 0.00 0.00 73 1010.6
20260508063704 16 180 1.6 0.0 0.00 0.00 0.00 75 1010.4
20260508063204 16 180 1.6 0.0 0.00 0.00 0.00 76 1010.3
20260508062704 16 225 0.0 0.0 0.00 0.00 0.00 76 1010.3
20260508062205 15 270 0.0 0.0 0.00 0.00 0.00 77 1010.2
20260508061704 15 180 1.6 0.0 0.00 0.00 0.00 77 1010.3
20260508061204 15 180 0.0 0.0 0.00 0.00 0.00 77 1010.1
20260508060705 15 45 4.8 0.0 0.00 0.00 0.00 77 1010.2
20260508060204 15 315 3.2 0.0 0.00 0.00 0.00 79 1010.0
20260508055704 15 315 0.0 0.0 0.00 0.00 0.00 79 1009.8
20260508054704 15 225 0.0 0.0 0.00 0.00 0.00 80 1010.0
20260508054205 15 225 0.0 0.0 0.00 0.00 0.00 80 1010.0
20260508053704 15 315 1.6 0.0 0.00 0.00 0.00 80 1010.0
20260508053204 15 315 0.0 0.0 0.00 0.00 0.00 80 1009.9
20260508052704 14 315 0.0 0.0 0.00 0.00 0.00 80 1009.8
20260508052204 14 315 0.0 0.0 0.00 0.00 0.00 81 1009.9
20260508051704 14 315 0.0 0.0 0.00 0.00 0.00 81 1009.9
20260508051204 14 315 0.0 0.0 0.00 0.00 0.00 80 1010.1
20260508050703 13 225 0.0 0.0 0.00 0.00 0.00 80 1010.0
20260508050204 13 225 0.0 0.0 0.00 0.00 0.00 80 1010.2
20260508045703 13 225 0.0 0.0 0.00 0.00 0.00 80 1009.9
20260508045204 13 225 1.6 0.0 0.00 0.00 0.00 80 1009.9
20260508044704 13 225 0.0 0.0 0.00 0.00 0.00 81 1010.0
20260508044203 13 225 0.0 0.0 0.00 0.00 0.00 81 1009.8
20260508043704 13 225 0.0 0.0 0.00 0.00 0.00 81 1009.8
20260508043204 12 225 0.0 0.0 0.00 0.00 0.00 81 1009.7
20260508042704 12 225 1.6 0.0 0.00 0.00 0.00 81 1009.6
20260508041703 12 225 0.0 0.0 0.00 0.00 0.00 82 1009.6
20260508041204 12 180 3.2 0.0 0.00 0.00 0.00 82 1009.5
20260508040704 12 225 0.0 0.0 0.00 0.00 0.00 85 1009.5
20260508035704 12 225 0.0 0.0 0.00 0.00 0.00 84 1009.4
20260508035204 12 270 1.6 0.0 0.00 0.00 0.00 85 1009.4
20260508034704 12 225 1.6 0.0 0.00 0.00 0.00 85 1009.5
20260508033704 12 270 1.6 0.0 0.00 0.00 0.00 87 1009.5
20260508033204 12 225 1.6 0.0 0.00 0.00 0.00 88 1009.6
20260508032704 12 225 1.6 0.0 0.00 0.00 0.00 88 1009.6
20260508032204 11 180 3.2 0.0 0.00 0.00 0.00 88 1009.7
20260508031704 11 225 1.6 0.0 0.00 0.00 0.00 88 1009.6
20260508030204 11 225 0.0 0.0 0.00 0.00 0.00 88 1009.4
20260508025204 11 225 1.6 0.0 0.00 0.00 0.00 88 1009.6
20260508024704 11 225 1.6 0.0 0.00 0.00 0.00 87 1009.4
20260508024203 11 225 1.6 0.0 0.00 0.00 0.00 88 1009.3
20260508023204 11 225 1.6 0.0 0.00 0.00 0.00 88 1009.3
20260508022704 11 225 0.0 0.0 0.00 0.00 0.00 88 1009.2
20260508022204 11 225 0.0 0.0 0.00 0.00 0.00 88 1009.2
20260508021704 11 225 1.6 0.0 0.00 0.00 0.00 89 1009.4
20260508021204 11 225 1.6 0.0 0.00 0.00 0.00 89 1009.4
20260508020704 11 225 1.6 0.0 0.00 0.00 0.00 90 1009.5
20260508020204 11 225 0.0 0.0 0.00 0.00 0.00 90 1009.5
20260508015704 11 225 0.0 0.0 0.00 0.00 0.00 90 1009.4
20260508015204 11 225 0.0 0.0 0.00 0.00 0.00 90 1009.7
20260508014204 11 270 0.0 0.0 0.00 0.00 0.00 89 1009.6
20260508013704 11 270 0.0 0.0 0.00 0.00 0.00 89 1009.6
20260508013204 11 225 0.0 0.0 0.00 0.00 0.00 88 1009.6
20260508012704 11 225 1.6 0.0 0.00 0.00 0.00 87 1009.6
20260508012204 11 225 1.6 0.0 0.00 0.00 0.00 87 1009.9
20260508011703 11 225 1.6 0.0 0.00 0.00 0.00 87 1010.0
20260508011204 11 225 1.6 0.0 0.00 0.00 0.00 87 1010.1
20260508010704 11 225 0.0 0.0 0.00 0.00 0.00 86 1010.1
20260508010203 11 225 0.0 0.0 0.00 0.00 0.00 86 1010.0
20260508005704 12 225 0.0 0.0 0.00 0.00 0.00 86 1010.2
20260508005204 12 270 1.6 0.0 0.00 0.00 0.00 86 1010.1
20260508004704 12 225 1.6 0.0 0.00 0.00 0.00 86 1010.0
20260508004204 12 225 0.0 0.0 0.00 0.00 0.00 86 1010.2
20260508003704 12 225 1.6 0.0 0.00 0.00 0.00 86 1010.1
20260508003204 12 225 0.0 0.0 0.00 0.00 0.00 86 1010.2
20260508002704 11 225 1.6 0.0 0.00 0.00 0.00 86 1010.2
20260508002204 11 180 1.6 0.0 0.00 0.00 0.00 85 1010.2
20260508001704 11 225 1.6 0.0 0.00 0.00 0.00 84 1010.2
20260508001204 11 225 1.6 0.0 0.00 0.00 0.00 84 1010.3
20260508000704 11 225 1.6 0.0 0.00 0.00 0.00 83 1010.3
20260508000205 11 225 1.6 0.0 0.00 0.00 0.00 82 1010.3
20260507235704 11 225 1.6 0.0 0.00 0.00 0.00 82 1010.6
20260507235204 11 225 1.6 0.0 0.00 0.00 0.00 81 1010.6
20260507234704 11 225 1.6 0.0 0.00 0.00 0.00 81 1010.4
20260507233704 12 225 3.2 0.0 0.00 0.00 0.00 82 1010.8
20260507233203 11 180 1.6 0.0 0.00 0.00 0.00 81 1010.6
20260507232204 11 225 0.0 0.0 0.00 0.00 0.00 79 1010.9
20260507231704 11 225 1.6 0.0 0.00 0.00 0.00 79 1010.8
20260507231204 12 225 1.6 0.0 0.00 0.00 0.00 79 1011.0
20260507230704 12 225 0.0 0.0 0.00 0.00 0.00 79 1011.0
20260507230204 12 225 1.6 0.0 0.00 0.00 0.00 79 1010.9
20260507225704 12 180 0.0 0.0 0.00 0.00 0.00 80 1011.1
20260507225204 12 225 1.6 0.0 0.00 0.00 0.00 79 1011.0
20260507224704 12 225 0.0 0.0 0.00 0.00 0.00 78 1011.1
20260507224204 12 248 3.2 0.0 0.00 0.00 0.00 78 1011.2
20260507223704 12 225 0.0 0.0 0.00 0.00 0.00 74 1011.2
20260507223205 12 225 0.0 0.0 0.00 0.00 0.00 73 1011.1
20260507222704 12 225 1.6 0.0 0.00 0.00 0.00 73 1011.1
20260507222204 13 225 1.6 0.0 0.00 0.00 0.00 73 1011.1
20260507221704 13 225 1.6 0.0 0.00 0.00 0.00 73 1011.0
20260507221204 13 270 3.2 0.0 0.00 0.00 0.00 72 1011.1
20260507220704 13 225 3.2 0.0 0.00 0.00 0.00 72 1011.1
20260507215704 13 0 1.6 0.0 0.00 0.00 0.00 72 1011.0
20260507215203 13 225 1.6 0.0 0.00 0.00 0.00 72 1011.1
20260507214704 13 225 3.2 0.0 0.00 0.00 0.00 73 1011.0
20260507214204 13 225 3.2 0.0 0.00 0.00 0.00 74 1011.0
20260507213704 13 180 3.2 0.0 0.00 0.00 0.00 74 1011.1
20260507212704 13 225 3.2 0.0 0.00 0.00 0.00 73 1011.0
20260507212204 13 225 0.0 0.0 0.00 0.00 0.00 73 1011.0
20260507211704 13 225 3.2 0.0 0.00 0.00 0.00 73 1011.0
20260507211204 13 225 3.2 0.0 0.00 0.00 0.00 74 1010.9
20260507210704 13 203 0.0 0.0 0.00 0.00 0.00 77 1010.7
20260507210204 13 270 1.6 0.0 0.00 0.00 0.00 77 1010.8
20260507204704 13 270 3.2 0.0 0.00 0.00 0.00 77 1010.7
20260507204204 13 225 0.0 0.0 0.00 0.00 0.00 77 1010.8
20260507203703 13 225 0.0 0.0 0.00 0.00 0.00 77 1010.8
20260507203204 13 180 0.0 0.0 0.00 0.00 0.00 77 1010.8
20260507202704 13 225 1.6 0.0 0.00 0.00 0.00 77 1010.9
20260507202204 13 180 3.2 0.0 0.00 0.00 0.00 77 1010.8
20260507201704 13 225 1.6 0.0 0.00 0.00 0.00 77 1010.9
20260507201204 13 225 0.0 0.0 0.00 0.00 0.00 78 1010.8
20260507200704 13 225 0.0 0.0 0.00 0.00 0.00 77 1010.9
20260507200204 13 225 0.0 0.0 0.00 0.00 0.00 77 1010.9
20260507195703 13 225 0.0 0.0 0.00 0.00 0.00 77 1011.0
20260507195204 13 270 1.6 0.0 0.00 0.00 0.00 78 1011.0
20260507194704 13 270 3.2 0.0 0.00 0.00 0.00 79 1010.9
20260507193704 13 225 3.2 0.0 0.00 0.00 0.00 80 1011.0
20260507193204 13 45 3.2 0.0 0.00 0.00 0.00 80 1010.9
20260507192704 13 180 3.2 0.0 0.00 0.00 0.00 80 1010.9
20260507192204 13 270 3.2 0.0 0.00 0.00 0.00 79 1011.0
20260507191703 14 180 0.0 0.0 0.00 0.00 0.00 78 1010.9
20260507191204 14 270 3.2 0.0 0.00 0.00 0.00 76 1010.9
20260507190204 15 135 1.6 0.0 0.00 0.00 0.00 75 1011.0
20260507185704 15 225 3.2 0.0 0.00 0.00 0.00 75 1010.8
20260507185204 15 135 3.2 0.0 0.00 0.00 0.00 75 1010.8
20260507184704 15 45 0.0 0.0 0.00 0.00 0.00 76 1010.8
20260507184204 15 225 1.6 0.0 0.00 0.00 0.00 77 1011.0
20260507183704 15 270 3.2 0.0 0.00 0.00 0.00 80 1010.8
20260507183204 15 225 6.4 0.0 0.00 0.00 0.00 81 1010.9
20260507182704 15 270 1.6 0.0 0.00 0.00 0.00 81 1010.8
20260507182204 15 270 3.2 0.0 0.00 0.00 0.00 80 1010.8
20260507181704 15 158 1.6 0.0 0.00 0.00 0.00 80 1010.6
20260507181204 15 315 3.2 0.0 0.00 0.00 0.00 80 1010.3
20260507180704 15 0.0 0.0 0.00 0.00 0.00 78
20260507180204 15 180 0.0 0.0 0.00 0.00 0.00 78 1010.2
20260507175704 16 135 1.6 0.0 0.00 0.00 0.00 78 1010.2
20260507175204 16 135 3.2 0.0 0.00 0.00 0.00 78 1010.2
20260507174204 16 180 4.8 0.0 0.00 0.00 0.00 78 1010.1
20260507173204 16 45 3.2 0.0 0.00 0.00 0.00 77 1010.0
20260507172704 16 135 3.2 0.0 0.00 0.00 0.00 76 1010.3
20260507171704 16 270 0.0 0.0 0.00 0.00 0.00 76 1010.4
20260507171204 16 270 1.6 0.0 0.00 0.00 0.00 75 1010.8
20260507170704 16 180 0.0 0.0 0.00 0.00 0.00 75 1010.7
20260507170204 16 225 1.6 0.0 0.00 0.00 0.00 75 1010.6
20260507165204 17 270 0.0 0.0 0.00 0.00 0.00 73 1010.6
20260507164704 17 0 1.6 0.0 0.00 0.00 0.00 72 1010.6
20260507164204 17 225 0.0 0.0 0.00 0.00 0.00 72 1010.6
20260507163704 17 180 1.6 0.0 0.00 0.00 0.00 71 1010.6
20260507163204 17 180 1.6 0.0 0.00 0.00 0.00 72 1010.4
20260507162704 17 45 3.2 0.0 0.00 0.00 0.00 72 1010.6
20260507162204 17 338 3.2 0.0 0.00 0.00 0.00 68 1010.4
20260507161704 17 45 3.2 0.0 0.00 0.00 0.00 68 1010.8
20260507161204 17 270 3.2 0.0 0.00 0.00 0.00 68 1010.6
20260507160204 17 90 0.0 0.0 0.00 0.00 0.00 70 1010.6
20260507155704 17 90 1.6 0.0 0.00 0.00 0.00 70 1010.6
20260507155204 17 270 0.0 0.0 0.00 0.00 0.00 69 1010.9
20260507154703 17 45 3.2 0.0 0.00 0.00 0.00 68 1010.9
20260507154204 17 135 3.2 0.0 0.00 0.00 0.00 67 1010.7
20260507153705 17 225 4.8 0.0 0.00 0.00 0.00 68 1011.0
20260507153204 17 135 6.4 0.0 0.00 0.00 0.00 68 1011.0
20260507152704 17 90 1.6 0.0 0.00 0.00 0.00 67 1010.9
20260507151704 18 135 3.2 0.0 0.00 0.00 0.00 65 1010.9
20260507151204 18 225 0.0 0.0 0.00 0.00 0.00 64 1011.1
20260507150704 18 90 3.2 0.0 0.00 0.00 0.00 64 1011.1
20260507150203 19 90 1.6 0.0 0.00 0.00 0.00 64 1011.2
20260507145704 19 135 4.8 0.0 0.00 0.00 0.00 63 1010.9
20260507145204 19 135 3.2 0.0 0.00 0.00 0.00 62 1010.8
20260507144704 19 158 3.2 0.0 0.00 0.00 0.00 61 1010.8
20260507144204 19 90 3.2 0.0 0.00 0.00 0.00 61 1010.9
20260507143704 20 135 1.6 0.0 0.00 0.00 0.00 61 1010.9
20260507143204 19 180 1.6 0.0 0.00 0.00 0.00 61 1011.0
20260507142704 19 180 1.6 0.0 0.00 0.00 0.00 62 1011.0
20260507141704 18 45 3.2 0.0 0.00 0.00 0.00 63 1010.6
20260507141204 18 90 4.8 0.0 0.00 0.00 0.00 63 1010.8
20260507140204 18 45 6.4 0.0 0.00 0.00 0.00 62 1010.8
20260507135704 19 45 6.4 0.0 0.00 0.00 0.00 64 1010.9
20260507135204 18 135 4.8 0.0 0.00 0.00 0.00 71 1010.8
20260507134704 18 180 1.6 0.0 0.00 0.00 0.00 72 1010.7
20260507133704 17 135 3.2 0.0 0.00 0.00 0.00 77 1010.8
20260507133204 17 135 3.2 0.0 0.00 0.00 0.00 77 1010.9
20260507132704 16 225 3.2 0.0 0.00 0.00 0.00 77 1010.9
20260507132204 16 135 3.2 0.0 0.00 0.00 0.00 77 1011.1
20260507131704 17 180 3.2 0.0 0.00 0.00 0.00 78 1011.1
20260507131205 17 68 4.8 0.0 0.00 0.00 0.00 77 1011.0
20260507130704 17 135 3.2 0.0 0.00 0.00 0.00 78 1011.3
20260507130204 17 45 1.6 0.0 0.00 0.00 0.00 78 1011.3
20260507125704 17 45 1.6 0.0 0.00 0.00 0.00 78 1011.4
20260507125204 17 0 4.8 0.0 0.00 0.00 0.00 76 1011.5
20260507124704 17 45 3.2 0.0 0.00 0.00 0.00 77 1011.7
20260507124203 17 90 3.2 0.0 0.00 0.00 0.00 81 1011.9
20260507123704 16 135 3.2 0.0 0.00 0.00 0.00 82 1012.0
20260507123204 16 270 1.6 0.0 0.00 0.00 0.00 82 1012.1
20260507122705 16 0 1.6 0.0 0.00 0.00 0.00 81 1012.1
20260507122204 16 315 6.4 0.0 0.00 0.00 0.00 82 1012.2
20260507121204 16 270 3.2 0.0 0.00 0.00 0.00 82 1012.3
20260507120703 16 315 3.2 0.0 0.00 0.00 0.00 81 1012.3
20260507120204 16 0 3.2 0.0 0.00 0.00 0.00 81 1012.4